sat.trackr.live / text

‹ back to catalog

STARLINK-32534

NORAD 62175 · 2024-225N

PAYLOAD ACTIVE UNKNOWN

§ Identity

Operator
Country
US
Launch date
2024-11-30
Launch site
AFWTR
Launch vehicle
Mass (kg)
RCS (m²)

Purposes: comms

External: N2YO · Heavens-Above · Gunter

§ Orbital elements

Epoch: 2026-09-21T22:00:03.000096Z

Period
95.77 min
Inclination
69.9997°
Eccentricity
0.0003601
Mean motion
15.03624269 rev/d
Perigee alt
553.2 km
Apogee alt
558.2 km
Semi-major
6,933.9 km
B*
4.5382e-4
RAAN
29.8326°
Arg perigee
259.5335°
Mean anomaly
135.2146°
Rev number
572

§ Raw data

STARLINK-325341 62175U 24225N   26264.91670139  .00006129  00000+0  45382-3 0  99942 62175  69.9997  29.8326 0003601 259.5335 135.2146 15.03624269  5728

JSON: /api/v1/satellites/62175 · /tle

For live sub-satellite position, see the globe view (requires WebGL).

§ Visibility from observer

Set your observer location to see the next 7 days of passes ≥ 10°. The values pass through the URL so the page stays shareable.

No JS? Fill the form by hand. The geolocation button needs JavaScript.